UP1225 URFF-UMMS

Flight info

Callsign UP1225
Flight time N/A
Altitude 38000
Route TOKNO G364 KENEN/K0857F390 A813 KL/K0863F380 L91 KANON/K0870F400 L91 KEPED T561 UBONA L749 RAFMA
Aircraft B736/M-SDE2E3FGHIRWXY/LB1

Departure

Time N/A
Airport URFF

Arrival

Time 2026-04-28 14:45
Airport Minsk National Airport (UMMS)
Time Latitude Longitude Altitude Speed Heading
2026-04-28 11:05 45.03430 33.98354 605 ft 0 kts 14°
2026-04-28 11:31 45.03413 33.98349 618 ft 4 kts 14°
2026-04-28 11:31 45.03387 33.98340 605 ft 4 kts 14°
2026-04-28 11:31 45.03363 33.98332 621 ft 2 kts 14°
2026-04-28 11:31 45.03340 33.98330 605 ft 4 kts 326°
2026-04-28 11:32 45.03324 33.98357 605 ft 4 kts 292°
2026-04-28 11:32 45.03317 33.98388 616 ft 1 kts 284°
2026-04-28 11:37 45.03317 33.98386 605 ft 1 kts 284°
2026-04-28 11:37 45.03323 33.98353 619 ft 6 kts 281°
2026-04-28 11:37 45.03334 33.98285 615 ft 7 kts 283°
2026-04-28 11:38 45.03346 33.98215 605 ft 7 kts 285°
2026-04-28 11:38 45.03359 33.98148 612 ft 7 kts 285°
2026-04-28 11:38 45.03372 33.98084 611 ft 7 kts 285°
2026-04-28 11:38 45.03382 33.98019 609 ft 7 kts 279°
2026-04-28 11:39 45.03393 33.97953 605 ft 8 kts 284°
2026-04-28 11:39 45.03407 33.97875 605 ft 8 kts 284°
2026-04-28 11:39 45.03421 33.97797 605 ft 8 kts 285°
2026-04-28 11:39 45.03435 33.97721 608 ft 8 kts 285°
2026-04-28 11:40 45.03449 33.97647 616 ft 8 kts 283°
2026-04-28 11:40 45.03461 33.97575 605 ft 7 kts 284°
2026-04-28 11:40 45.03473 33.97506 611 ft 7 kts 284°
2026-04-28 11:40 45.03484 33.97439 605 ft 7 kts 284°
2026-04-28 11:41 45.03497 33.97382 614 ft 7 kts 293°
2026-04-28 11:41 45.03521 33.97326 620 ft 7 kts 300°
2026-04-28 11:41 45.03535 33.97263 605 ft 7 kts 286°
2026-04-28 11:41 45.03545 33.97201 605 ft 6 kts 276°
2026-04-28 11:42 45.03541 33.97138 612 ft 6 kts 262°
2026-04-28 11:42 45.03536 33.97076 610 ft 6 kts 274°
2026-04-28 11:42 45.03560 33.97026 605 ft 6 kts 310°
2026-04-28 11:42 45.03596 33.96996 617 ft 6 kts 339°
2026-04-28 11:43 45.03635 33.96974 605 ft 6 kts 339°
2026-04-28 11:43 45.03674 33.96955 615 ft 6 kts 340°
2026-04-28 11:43 45.03713 33.96935 617 ft 6 kts 341°
2026-04-28 11:43 45.03761 33.96916 613 ft 8 kts 345°
2026-04-28 11:44 45.03824 33.96906 612 ft 10 kts
2026-04-28 11:44 45.03894 33.96921 610 ft 11 kts 12°
2026-04-28 11:44 45.03974 33.96948 609 ft 13 kts 13°
2026-04-28 11:44 45.04041 33.96970 606 ft 17 kts 12°
2026-04-28 11:45 45.04174 33.97015 618 ft 22 kts 13°
2026-04-28 11:45 45.04337 33.97069 605 ft 27 kts 14°
2026-04-28 11:45 45.04547 33.97142 605 ft 33 kts 14°
2026-04-28 11:45 45.04767 33.97219 605 ft 31 kts 14°
2026-04-28 11:46 45.04966 33.97288 616 ft 29 kts 13°
2026-04-28 11:46 45.05154 33.97352 612 ft 27 kts 13°
2026-04-28 11:46 45.05328 33.97411 612 ft 25 kts 13°
2026-04-28 11:46 45.05491 33.97467 604 ft 23 kts 13°
2026-04-28 11:47 45.05645 33.97519 604 ft 22 kts 13°
2026-04-28 11:47 45.05795 33.97569 611 ft 22 kts 13°
2026-04-28 11:47 45.05941 33.97614 607 ft 21 kts 12°
2026-04-28 11:47 45.06081 33.97668 604 ft 21 kts 15°
2026-04-28 11:48 45.06216 33.97713 606 ft 20 kts 14°
2026-04-28 11:48 45.06349 33.97760 612 ft 19 kts 14°
2026-04-28 11:48 45.06477 33.97805 604 ft 19 kts 13°
2026-04-28 11:48 45.06601 33.97847 608 ft 18 kts 14°
2026-04-28 11:49 45.06718 33.97897 606 ft 17 kts 35°
2026-04-28 11:49 45.06794 33.97919 606 ft 6 kts 280°
2026-04-28 11:49 45.06761 33.97895 616 ft 6 kts 176°
2026-04-28 11:49 45.06732 33.97891 621 ft 0 kts 191°
2026-04-28 11:50 45.06702 33.97881 605 ft 21 kts 193°
2026-04-28 11:50 45.06306 33.97742 610 ft 100 kts 192°
2026-04-28 11:50 45.05395 33.97427 626 ft 167 kts 197°
2026-04-28 11:50 45.04169 33.96987 1147 ft 191 kts 199°
2026-04-28 11:51 45.02837 33.96472 1869 ft 207 kts 200°
2026-04-28 11:51 45.01400 33.95852 2599 ft 218 kts 199°
2026-04-28 11:51 44.99929 33.95185 3289 ft 233 kts 199°
2026-04-28 11:51 44.98323 33.94420 3953 ft 238 kts 198°
2026-04-28 11:52 44.96792 33.93720 5299 ft 226 kts 197°
2026-04-28 11:52 44.95315 33.93053 6475 ft 220 kts 198°
2026-04-28 11:52 44.93840 33.92406 7333 ft 230 kts 198°
2026-04-28 11:52 44.92216 33.91793 7742 ft 258 kts 189°
2026-04-28 11:53 44.90445 33.92099 8756 ft 262 kts 160°
2026-04-28 11:53 44.88930 33.93583 9682 ft 271 kts 131°
2026-04-28 11:53 44.87987 33.95947 10399 ft 287 kts 111°
2026-04-28 11:53 44.87304 33.98753 10657 ft 318 kts 108°
2026-04-28 11:54 44.86873 34.01952 10861 ft 348 kts 89°
2026-04-28 11:54 44.87283 34.05400 11348 ft 364 kts 74°
2026-04-28 11:54 44.88869 34.11808 12931 ft 373 kts 65°
2026-04-28 11:54 44.91700 34.20418 14815 ft 391 kts 62°
2026-04-28 11:55 44.92888 34.23877 15636 ft 393 kts 62°
2026-04-28 11:55 44.94076 34.27377 16420 ft 398 kts 63°
2026-04-28 11:55 44.95265 34.30940 17182 ft 403 kts 63°
2026-04-28 11:55 44.96453 34.34559 17939 ft 409 kts 64°
2026-04-28 11:56 44.97643 34.38229 18668 ft 414 kts 63°
2026-04-28 11:56 44.98843 34.41954 19347 ft 418 kts 64°
2026-04-28 11:56 45.00046 34.45707 20039 ft 421 kts 64°
2026-04-28 11:56 45.01239 34.49447 20718 ft 425 kts 64°
2026-04-28 11:57 45.02456 34.53271 21383 ft 428 kts 64°
2026-04-28 11:57 45.03677 34.57112 21798 ft 421 kts 65°
2026-04-28 11:57 45.04863 34.60853 22893 ft 416 kts 64°
2026-04-28 11:57 45.06065 34.64641 23206 ft 431 kts 64°
2026-04-28 11:58 45.07313 34.68578 23450 ft 445 kts 64°
2026-04-28 11:58 45.08586 34.72602 23942 ft 450 kts 64°
2026-04-28 11:58 45.09866 34.76657 24538 ft 453 kts 64°
2026-04-28 11:58 45.11154 34.80742 25135 ft 455 kts 64°
2026-04-28 11:59 45.12451 34.84867 25651 ft 460 kts 64°
2026-04-28 11:59 45.13757 34.89022 26141 ft 464 kts 65°
2026-04-28 11:59 45.15074 34.93216 26652 ft 467 kts 65°
2026-04-28 11:59 45.16398 34.97443 27156 ft 470 kts 65°
2026-04-28 12:00 45.17728 35.01694 27613 ft 474 kts 65°
2026-04-28 12:00 45.19066 35.05981 28068 ft 477 kts 65°
2026-04-28 12:00 45.20411 35.10294 28495 ft 481 kts 65°
2026-04-28 12:00 45.21764 35.14642 28924 ft 483 kts 65°
2026-04-28 12:01 45.23104 35.18957 29340 ft 486 kts 65°
2026-04-28 12:01 45.24472 35.23368 29705 ft 490 kts 65°
2026-04-28 12:01 45.25850 35.27819 30073 ft 493 kts 65°
2026-04-28 12:01 45.27231 35.32286 30459 ft 495 kts 65°
2026-04-28 12:02 45.28615 35.36776 30825 ft 498 kts 65°
2026-04-28 12:02 45.30008 35.41302 31165 ft 500 kts 65°
2026-04-28 12:02 45.31406 35.45848 31502 ft 502 kts 65°
2026-04-28 12:02 45.32803 35.50399 31935 ft 501 kts 65°
2026-04-28 12:03 45.34193 35.54937 32380 ft 500 kts 65°
2026-04-28 12:03 45.35577 35.59462 32802 ft 499 kts 65°
2026-04-28 12:03 45.36959 35.63990 33162 ft 499 kts 66°
2026-04-28 12:03 45.38325 35.68475 33475 ft 500 kts 66°
2026-04-28 12:04 45.39708 35.73023 33848 ft 500 kts 66°
2026-04-28 12:04 45.41084 35.77556 34248 ft 498 kts 66°
2026-04-28 12:04 45.42455 35.82079 34607 ft 498 kts 66°
2026-04-28 12:04 45.43823 35.86599 34950 ft 497 kts 66°
2026-04-28 12:05 45.45190 35.91126 35267 ft 497 kts 66°
2026-04-28 12:05 45.46553 35.95647 35580 ft 496 kts 66°
2026-04-28 12:05 45.47912 36.00165 35869 ft 496 kts 66°
2026-04-28 12:05 45.49272 36.04691 36125 ft 497 kts 66°
2026-04-28 12:06 45.50628 36.09218 36377 ft 497 kts 66°
2026-04-28 12:06 45.51985 36.13750 36640 ft 497 kts 66°
2026-04-28 12:06 45.53336 36.18273 36953 ft 495 kts 66°
2026-04-28 12:06 45.54677 36.22770 37358 ft 490 kts 66°
2026-04-28 12:07 45.56001 36.27218 37813 ft 484 kts 66°
2026-04-28 12:07 45.57315 36.31638 38130 ft 483 kts 66°
2026-04-28 12:07 45.59953 36.40536 38182 ft 489 kts 67°
2026-04-28 12:08 45.62586 36.49458 38168 ft 485 kts 67°
2026-04-28 12:08 45.65172 36.58248 38175 ft 481 kts 67°
2026-04-28 12:09 45.67753 36.67049 38174 ft 479 kts 67°
2026-04-28 12:09 45.70320 36.75834 38178 ft 478 kts 67°
2026-04-28 12:10 45.73000 36.84540 38167 ft 478 kts 59°
2026-04-28 12:10 45.77011 36.92063 38178 ft 476 kts 43°
2026-04-28 12:11 45.81783 36.98677 38177 ft 478 kts 41°
2026-04-28 12:11 45.86587 37.05330 38177 ft 482 kts 42°
2026-04-28 12:12 45.91354 37.12060 38174 ft 485 kts 42°
2026-04-28 12:12 45.96166 37.18913 38166 ft 488 kts 43°
2026-04-28 12:13 46.00992 37.25806 38166 ft 490 kts 43°
2026-04-28 12:13 46.05835 37.32732 38165 ft 491 kts 43°
2026-04-28 12:14 46.10647 37.39713 38162 ft 492 kts 46°
2026-04-28 12:14 46.15112 37.47204 38168 ft 492 kts 49°
2026-04-28 12:15 46.19453 37.54823 38160 ft 491 kts 49°
2026-04-28 12:15 46.23802 37.62420 38159 ft 490 kts 49°
2026-04-28 12:16 46.28142 37.69945 38153 ft 489 kts 48°
2026-04-28 12:16 46.32501 37.77496 38164 ft 488 kts 49°
2026-04-28 12:17 46.36843 37.85038 38156 ft 487 kts 49°
2026-04-28 12:17 46.41176 37.92588 38156 ft 487 kts 49°
2026-04-28 12:18 46.45497 38.00138 38153 ft 487 kts 49°
2026-04-28 12:18 46.49816 38.07707 38146 ft 487 kts 49°
2026-04-28 12:19 46.54137 38.15299 38154 ft 488 kts 49°
2026-04-28 12:19 46.58430 38.22866 38149 ft 488 kts 49°
2026-04-28 12:20 46.62746 38.30488 38147 ft 488 kts 49°
2026-04-28 12:20 46.67057 38.38129 38152 ft 489 kts 49°
2026-04-28 12:21 46.71374 38.45801 38151 ft 489 kts 49°
2026-04-28 12:21 46.75689 38.53490 38154 ft 490 kts 49°
2026-04-28 12:22 46.80003 38.61198 38133 ft 491 kts 49°
2026-04-28 12:22 46.84293 38.68885 38136 ft 492 kts 49°
2026-04-28 12:23 46.88681 38.76572 38129 ft 491 kts 43°
2026-04-28 12:23 46.93722 38.83285 38136 ft 490 kts 38°
2026-04-28 12:24 46.98880 38.89812 38137 ft 490 kts 38°
2026-04-28 12:24 47.04006 38.96440 38133 ft 491 kts 39°
2026-04-28 12:25 47.09097 39.03133 38140 ft 492 kts 39°
2026-04-28 12:25 47.14188 39.09854 38131 ft 492 kts 39°
2026-04-28 12:26 47.19281 39.16588 38129 ft 492 kts 39°
2026-04-28 12:26 47.24337 39.23286 38130 ft 492 kts 39°
2026-04-28 12:27 47.29425 39.30045 38131 ft 492 kts 39°
2026-04-28 12:27 47.34501 39.36811 38128 ft 492 kts 39°
2026-04-28 12:28 47.39575 39.43594 38131 ft 492 kts 39°
2026-04-28 12:28 47.44644 39.50390 38127 ft 492 kts 39°
2026-04-28 12:29 47.52240 39.60605 38127 ft 492 kts 39°
2026-04-28 12:30 47.57302 39.67436 38128 ft 493 kts 40°
2026-04-28 12:30 47.62328 39.74239 38132 ft 493 kts 40°
2026-04-28 12:31 47.67391 39.81108 38132 ft 493 kts 40°
2026-04-28 12:31 47.72451 39.87993 38122 ft 493 kts 40°
2026-04-28 12:32 47.76688 39.93774 38131 ft 494 kts 40°
2026-04-28 12:32 47.81713 40.00646 38129 ft 494 kts 40°
2026-04-28 12:33 47.86929 40.07249 38119 ft 489 kts 28°
2026-04-28 12:33 47.93028 40.11436 38122 ft 478 kts 10°
2026-04-28 12:34 47.99498 40.13336 38127 ft 473 kts
2026-04-28 12:34 48.05982 40.15127 38130 ft 474 kts
2026-04-28 12:35 48.12478 40.16847 38128 ft 473 kts
2026-04-28 12:35 48.19001 40.18132 38128 ft 473 kts
2026-04-28 12:36 48.25500 40.19397 38118 ft 474 kts
2026-04-28 12:36 48.32045 40.20734 38121 ft 474 kts
2026-04-28 12:37 48.38583 40.22096 38119 ft 475 kts
2026-04-28 12:37 48.45132 40.23462 38120 ft 475 kts
2026-04-28 12:38 48.51681 40.24825 38117 ft 475 kts
2026-04-28 12:38 48.58224 40.26190 38125 ft 474 kts
2026-04-28 12:39 48.64766 40.27561 38113 ft 475 kts
2026-04-28 12:39 48.71314 40.28934 38106 ft 475 kts
2026-04-28 12:40 48.77811 40.30302 38111 ft 474 kts
2026-04-28 12:40 48.84348 40.31682 38109 ft 474 kts
2026-04-28 12:41 48.90883 40.33065 38109 ft 474 kts
2026-04-28 12:41 48.97411 40.34453 38090 ft 474 kts
2026-04-28 12:42 49.03941 40.35846 38095 ft 473 kts
2026-04-28 12:42 49.10471 40.37242 38089 ft 473 kts
2026-04-28 12:43 49.16944 40.38632 38088 ft 472 kts
2026-04-28 12:43 49.23460 40.40034 38092 ft 472 kts
2026-04-28 12:44 49.29975 40.41437 38082 ft 472 kts
2026-04-28 12:44 49.36476 40.42843 38087 ft 472 kts
2026-04-28 12:45 49.42982 40.44253 38078 ft 472 kts
2026-04-28 12:45 49.49487 40.45590 38068 ft 468 kts 357°
2026-04-28 12:46 49.55777 40.44626 38078 ft 451 kts 339°
2026-04-28 12:46 49.61548 40.41166 38072 ft 442 kts 329°
2026-04-28 12:47 49.67172 40.37270 38070 ft 443 kts 329°
2026-04-28 12:47 49.72815 40.33382 38059 ft 444 kts 329°
2026-04-28 12:48 49.78479 40.29522 38055 ft 445 kts 330°
2026-04-28 12:48 49.84157 40.25666 38061 ft 446 kts 330°
2026-04-28 12:49 49.89806 40.21820 38050 ft 446 kts 330°
2026-04-28 12:49 49.95488 40.17944 38047 ft 446 kts 330°
2026-04-28 12:50 50.01169 40.14058 38044 ft 445 kts 329°
2026-04-28 12:50 50.06830 40.10172 38043 ft 445 kts 329°
2026-04-28 12:51 50.12488 40.06280 38035 ft 444 kts 329°
2026-04-28 12:51 50.18133 40.02385 38037 ft 443 kts 329°
2026-04-28 12:52 50.23778 39.98479 38029 ft 443 kts 329°
2026-04-28 12:52 50.29416 39.94569 38031 ft 443 kts 329°
2026-04-28 12:53 50.35022 39.90672 38021 ft 443 kts 329°
2026-04-28 12:53 50.40658 39.86742 38006 ft 443 kts 329°
2026-04-28 12:54 50.46293 39.82803 38013 ft 443 kts 329°
2026-04-28 12:54 50.51929 39.78853 37995 ft 442 kts 329°
2026-04-28 12:55 50.57521 39.74925 38005 ft 442 kts 329°
2026-04-28 12:55 50.63141 39.70966 37991 ft 443 kts 329°
2026-04-28 12:56 50.68771 39.66989 37980 ft 443 kts 329°
2026-04-28 12:56 50.74395 39.63007 37981 ft 443 kts 329°
2026-04-28 12:57 50.80021 39.59014 37980 ft 443 kts 329°
2026-04-28 12:57 50.85639 39.55013 37981 ft 443 kts 329°
2026-04-28 12:58 50.91259 39.51001 37982 ft 443 kts 329°
2026-04-28 12:58 50.96840 39.47007 37969 ft 443 kts 329°
2026-04-28 12:59 51.02464 39.42970 37970 ft 443 kts 329°
2026-04-28 12:59 51.08088 39.38923 37965 ft 444 kts 329°
2026-04-28 13:00 51.13483 39.34316 37957 ft 434 kts 317°
2026-04-28 13:00 51.17721 39.27700 37967 ft 422 kts 303°
2026-04-28 13:01 51.21349 39.20341 37964 ft 422 kts 303°
2026-04-28 13:01 51.24976 39.12979 37982 ft 422 kts 303°
2026-04-28 13:02 51.28607 39.05678 37982 ft 423 kts 303°
2026-04-28 13:02 51.32276 38.98307 37973 ft 424 kts 303°
2026-04-28 13:03 51.35944 38.90919 37979 ft 425 kts 303°
2026-04-28 13:03 51.39607 38.83482 37963 ft 425 kts 303°
2026-04-28 13:04 51.43251 38.76006 37971 ft 426 kts 303°
2026-04-28 13:04 51.46891 38.68516 37975 ft 426 kts 303°
2026-04-28 13:05 51.50509 38.61057 37971 ft 426 kts 303°
2026-04-28 13:05 51.54144 38.53541 37978 ft 426 kts 303°
2026-04-28 13:06 51.57776 38.46013 37979 ft 426 kts 303°
2026-04-28 13:06 51.61406 38.38463 37983 ft 426 kts 303°
2026-04-28 13:07 51.65024 38.30913 37983 ft 426 kts 303°
2026-04-28 13:07 51.68618 38.23398 37981 ft 426 kts 303°
2026-04-28 13:08 51.72226 38.15828 37985 ft 426 kts 303°
2026-04-28 13:08 51.75829 38.08247 37979 ft 426 kts 303°
2026-04-28 13:09 51.79429 38.00654 37978 ft 426 kts 303°
2026-04-28 13:09 51.83563 37.93699 37983 ft 432 kts 313°
2026-04-28 13:10 51.88051 37.87191 37959 ft 433 kts 313°
2026-04-28 13:10 51.92536 37.80662 37951 ft 433 kts 313°
2026-04-28 13:11 51.96995 37.74089 37959 ft 433 kts 313°
2026-04-28 13:11 52.01442 37.67482 37956 ft 433 kts 313°
2026-04-28 13:12 52.05886 37.60861 37946 ft 433 kts 313°
2026-04-28 13:12 52.10292 37.54277 37953 ft 433 kts 313°
2026-04-28 13:13 52.14726 37.47635 37961 ft 433 kts 313°
2026-04-28 13:13 52.19150 37.40989 37961 ft 433 kts 313°
2026-04-28 13:14 52.23574 37.34323 37954 ft 433 kts 313°
2026-04-28 13:14 52.27998 37.27637 37968 ft 433 kts 313°
2026-04-28 13:15 52.32418 37.20942 37962 ft 434 kts 313°
2026-04-28 13:15 52.36769 37.14106 37952 ft 431 kts 306°
2026-04-28 13:16 52.39948 37.05943 37962 ft 423 kts 291°
2026-04-28 13:16 52.41872 36.96884 37963 ft 421 kts 285°
2026-04-28 13:17 52.43635 36.87731 37961 ft 422 kts 285°
2026-04-28 13:17 52.45420 36.78558 37965 ft 423 kts 285°
2026-04-28 13:18 52.46918 36.70921 37970 ft 424 kts 285°
2026-04-28 13:18 52.49019 36.60203 37958 ft 424 kts 285°
2026-04-28 13:19 52.50821 36.50970 37966 ft 425 kts 285°
2026-04-28 13:19 52.52324 36.43233 37968 ft 425 kts 285°
2026-04-28 13:20 52.54099 36.34049 37972 ft 425 kts 285°
2026-04-28 13:20 52.55883 36.24780 37983 ft 425 kts 285°
2026-04-28 13:21 52.57657 36.15516 37983 ft 425 kts 285°
2026-04-28 13:21 52.59425 36.06232 37980 ft 425 kts 285°
2026-04-28 13:22 52.61184 35.96951 37982 ft 425 kts 285°
2026-04-28 13:22 52.62938 35.87655 37979 ft 424 kts 285°
2026-04-28 13:23 52.64679 35.78380 37978 ft 424 kts 285°
2026-04-28 13:23 52.66404 35.69148 37982 ft 425 kts 285°
2026-04-28 13:24 52.68137 35.59833 37982 ft 425 kts 285°
2026-04-28 13:24 52.69858 35.50531 37983 ft 424 kts 285°
2026-04-28 13:25 52.71581 35.41206 37980 ft 425 kts 285°
2026-04-28 13:25 52.73302 35.31861 37963 ft 426 kts 285°
2026-04-28 13:26 52.75017 35.22501 37979 ft 426 kts 285°
2026-04-28 13:26 52.76725 35.13133 37979 ft 427 kts 285°
2026-04-28 13:27 52.78419 35.03792 37974 ft 427 kts 285°
2026-04-28 13:27 52.80114 34.94391 37978 ft 427 kts 285°
2026-04-28 13:28 52.81804 34.84971 37980 ft 427 kts 285°
2026-04-28 13:28 52.83488 34.75548 37979 ft 427 kts 285°
2026-04-28 13:29 52.85165 34.66106 37983 ft 427 kts 285°
2026-04-28 13:29 52.86833 34.56656 37984 ft 427 kts 285°
2026-04-28 13:30 52.88481 34.47266 37983 ft 427 kts 285°
2026-04-28 13:30 52.90135 34.37802 37980 ft 427 kts 284°
2026-04-28 13:31 52.92600 34.23592 37982 ft 428 kts 284°
2026-04-28 13:31 52.94232 34.14117 37989 ft 427 kts 284°
2026-04-28 13:32 52.95859 34.04625 37990 ft 428 kts 284°
2026-04-28 13:32 52.97480 33.95130 37990 ft 428 kts 284°
2026-04-28 13:33 52.99093 33.85618 37992 ft 428 kts 284°
2026-04-28 13:33 53.00696 33.76101 37996 ft 428 kts 284°
2026-04-28 13:34 53.02291 33.66577 38000 ft 428 kts 284°
2026-04-28 13:34 53.03868 33.57111 38001 ft 428 kts 284°
2026-04-28 13:35 53.05446 33.47581 38004 ft 428 kts 284°
2026-04-28 13:35 53.07019 33.38042 38010 ft 428 kts 284°
2026-04-28 13:36 53.08586 33.28488 38010 ft 428 kts 284°
2026-04-28 13:36 53.10148 33.18901 38009 ft 428 kts 284°
2026-04-28 13:37 53.11689 33.09391 38018 ft 428 kts 284°
2026-04-28 13:37 53.13232 32.99816 38017 ft 428 kts 284°
2026-04-28 13:38 53.14767 32.90232 38022 ft 428 kts 284°
2026-04-28 13:38 53.16295 32.80637 38025 ft 428 kts 284°
2026-04-28 13:39 53.17816 32.71034 38028 ft 428 kts 284°
2026-04-28 13:39 53.19319 32.61490 38037 ft 428 kts 284°
2026-04-28 13:40 53.20827 32.51872 38040 ft 429 kts 284°
2026-04-28 13:40 53.22608 32.42378 38039 ft 429 kts 291°
2026-04-28 13:41 53.25004 32.33232 38044 ft 430 kts 293°
2026-04-28 13:41 53.27434 32.24109 38047 ft 430 kts 292°
2026-04-28 13:42 53.29828 32.14941 38051 ft 431 kts 292°
2026-04-28 13:42 53.32179 32.05800 38044 ft 431 kts 292°
2026-04-28 13:43 53.34537 31.96563 38049 ft 432 kts 292°
2026-04-28 13:43 53.36890 31.87322 38045 ft 432 kts 292°
2026-04-28 13:44 53.39234 31.78060 38046 ft 432 kts 292°
2026-04-28 13:44 53.41574 31.68784 38050 ft 432 kts 292°
2026-04-28 13:45 53.43906 31.59505 38045 ft 432 kts 292°
2026-04-28 13:45 53.46230 31.50218 38047 ft 431 kts 292°
2026-04-28 13:46 53.48545 31.40929 38046 ft 431 kts 292°
2026-04-28 13:46 53.50854 31.31625 38045 ft 431 kts 292°
2026-04-28 13:47 53.53137 31.22386 38048 ft 431 kts 292°
2026-04-28 13:47 53.55426 31.13080 38043 ft 430 kts 292°
2026-04-28 13:48 53.57703 31.03786 38046 ft 429 kts 291°
2026-04-28 13:48 53.58848 30.99098 37537 ft 436 kts 292°
2026-04-28 13:48 53.59995 30.94391 36912 ft 434 kts 292°
2026-04-28 13:49 53.61135 30.89704 36237 ft 432 kts 292°
2026-04-28 13:49 53.62273 30.85018 35487 ft 432 kts 292°
2026-04-28 13:49 53.63410 30.80321 34676 ft 433 kts 292°
2026-04-28 13:49 53.64550 30.75602 33833 ft 434 kts 292°
2026-04-28 13:50 53.65688 30.70885 33098 ft 433 kts 292°
2026-04-28 13:50 53.66814 30.66209 32452 ft 429 kts 292°
2026-04-28 13:50 53.67927 30.61574 31864 ft 424 kts 292°
2026-04-28 13:50 53.69028 30.56981 31279 ft 420 kts 292°
2026-04-28 13:51 53.70104 30.52485 30716 ft 416 kts 292°
2026-04-28 13:51 53.71182 30.47964 30149 ft 413 kts 293°
2026-04-28 13:51 53.72249 30.43485 29590 ft 410 kts 293°
2026-04-28 13:51 53.73307 30.39032 29018 ft 407 kts 293°
2026-04-28 13:52 53.74356 30.34611 28441 ft 404 kts 293°
2026-04-28 13:52 53.75398 30.30216 27865 ft 402 kts 293°
2026-04-28 13:52 53.76435 30.25830 27303 ft 400 kts 293°
2026-04-28 13:52 53.77463 30.21472 26729 ft 398 kts 293°
2026-04-28 13:53 53.78485 30.17126 26133 ft 397 kts 293°
2026-04-28 13:53 53.79514 30.12747 25309 ft 403 kts 293°
2026-04-28 13:53 53.80551 30.08325 24599 ft 405 kts 293°
2026-04-28 13:53 53.81587 30.03891 23998 ft 404 kts 293°
2026-04-28 13:54 53.82617 29.99477 23453 ft 402 kts 293°
2026-04-28 13:54 53.83634 29.95109 23038 ft 395 kts 293°
2026-04-28 13:54 53.84619 29.90869 22643 ft 389 kts 293°
2026-04-28 13:54 53.85605 29.86617 22158 ft 386 kts 293°
2026-04-28 13:55 53.86579 29.82410 21696 ft 381 kts 293°
2026-04-28 13:55 53.87537 29.78264 21301 ft 375 kts 293°
2026-04-28 13:55 53.88481 29.74168 20863 ft 371 kts 293°
2026-04-28 13:55 53.89413 29.70119 20419 ft 366 kts 293°
2026-04-28 13:56 53.90329 29.66128 19990 ft 361 kts 293°
2026-04-28 13:56 53.91232 29.62188 19570 ft 356 kts 293°
2026-04-28 13:56 53.92124 29.58291 19142 ft 352 kts 293°
2026-04-28 13:56 53.93004 29.54443 18721 ft 347 kts 293°
2026-04-28 13:57 53.93872 29.50639 18290 ft 343 kts 293°
2026-04-28 13:57 53.94726 29.46885 17875 ft 338 kts 293°
2026-04-28 13:57 53.95568 29.43185 17448 ft 334 kts 293°
2026-04-28 13:57 53.96401 29.39517 17003 ft 331 kts 293°
2026-04-28 13:58 53.97223 29.35887 16568 ft 327 kts 293°
2026-04-28 13:58 53.97888 29.32209 16122 ft 327 kts 280°
2026-04-28 13:58 53.98023 29.28372 15688 ft 324 kts 274°
2026-04-28 13:58 53.98090 29.24564 15228 ft 321 kts 274°
2026-04-28 13:59 53.98155 29.20792 14783 ft 318 kts 274°
2026-04-28 13:59 53.98223 29.17096 14369 ft 315 kts 275°
2026-04-28 13:59 53.98298 29.13397 13940 ft 312 kts 275°
2026-04-28 13:59 53.98374 29.09738 13512 ft 308 kts 275°
2026-04-28 14:00 53.98453 29.06110 13033 ft 306 kts 275°
2026-04-28 14:00 53.98531 29.02517 12608 ft 303 kts 275°
2026-04-28 14:00 53.98609 28.98958 12163 ft 300 kts 275°
2026-04-28 14:00 53.98686 28.95434 11738 ft 297 kts 275°
2026-04-28 14:01 53.98761 28.91937 11257 ft 295 kts 275°
2026-04-28 14:01 53.98836 28.88464 10775 ft 294 kts 275°
2026-04-28 14:01 53.98907 28.85041 10601 ft 284 kts 275°
2026-04-28 14:01 53.98975 28.81746 10514 ft 273 kts 275°
2026-04-28 14:02 53.99040 28.78587 10440 ft 262 kts 275°
2026-04-28 14:02 53.99102 28.75538 10266 ft 256 kts 275°
2026-04-28 14:02 53.99161 28.72564 9976 ft 254 kts 275°
2026-04-28 14:02 53.99215 28.69554 9667 ft 255 kts 273°
2026-04-28 14:03 53.98842 28.66598 9356 ft 263 kts 250°
2026-04-28 14:03 53.98067 28.63804 9106 ft 261 kts 249°
2026-04-28 14:03 53.97281 28.61031 8852 ft 260 kts 249°
2026-04-28 14:03 53.96505 28.58271 8562 ft 259 kts 249°
2026-04-28 14:04 53.95735 28.55516 8261 ft 258 kts 249°
2026-04-28 14:04 53.94967 28.52763 7976 ft 257 kts 249°
2026-04-28 14:04 53.94203 28.50026 7664 ft 256 kts 249°
2026-04-28 14:04 53.93443 28.47299 7388 ft 255 kts 249°
2026-04-28 14:05 53.92659 28.44612 7097 ft 255 kts 243°
2026-04-28 14:05 53.91535 28.42247 6792 ft 258 kts 232°
2026-04-28 14:05 53.90334 28.39987 6491 ft 258 kts 233°
2026-04-28 14:05 53.89118 28.37826 6312 ft 256 kts 223°
2026-04-28 14:06 53.87493 28.36645 6230 ft 257 kts 191°
2026-04-28 14:06 53.85735 28.36988 6120 ft 257 kts 160°
2026-04-28 14:06 53.84222 28.38558 5867 ft 256 kts 141°
2026-04-28 14:06 53.82877 28.40540 5605 ft 257 kts 138°
2026-04-28 14:07 53.81550 28.42556 5365 ft 256 kts 138°
2026-04-28 14:07 53.80225 28.44558 5121 ft 254 kts 138°
2026-04-28 14:07 53.79348 28.45875 4946 ft 255 kts 138°
2026-04-28 14:07 53.78020 28.47852 4729 ft 253 kts 139°
2026-04-28 14:08 53.76694 28.49810 4498 ft 253 kts 139°
2026-04-28 14:08 53.75368 28.51759 4284 ft 252 kts 139°
2026-04-28 14:08 53.73616 28.54336 4017 ft 251 kts 139°
2026-04-28 14:08 53.72724 28.55632 3875 ft 251 kts 142°
2026-04-28 14:09 53.71171 28.56829 3692 ft 245 kts 176°
2026-04-28 14:09 53.69557 28.56453 3642 ft 225 kts 208°
2026-04-28 14:09 53.68307 28.55109 3567 ft 204 kts 230°
2026-04-28 14:09 53.67404 28.53413 3508 ft 187 kts 236°
2026-04-28 14:10 53.66579 28.51801 3446 ft 176 kts 236°
2026-04-28 14:10 53.65805 28.50291 3445 ft 172 kts 237°
2026-04-28 14:10 53.65018 28.48752 3438 ft 174 kts 236°
2026-04-28 14:10 53.64216 28.47187 3411 ft 178 kts 236°
2026-04-28 14:11 53.63407 28.45614 3375 ft 177 kts 236°
2026-04-28 14:11 53.62891 28.43861 3311 ft 162 kts 273°
2026-04-28 14:11 53.63133 28.42150 3299 ft 145 kts 305°
2026-04-28 14:11 53.63825 28.40986 3280 ft 139 kts 319°
2026-04-28 14:12 53.64544 28.39903 3245 ft 138 kts 319°
2026-04-28 14:12 53.65262 28.38827 3234 ft 139 kts 319°
2026-04-28 14:12 53.65989 28.37744 3201 ft 139 kts 319°
2026-04-28 14:12 53.66717 28.36671 3172 ft 139 kts 319°
2026-04-28 14:13 53.67458 28.35602 3094 ft 142 kts 324°
2026-04-28 14:13 53.68268 28.34648 3004 ft 141 kts 325°
2026-04-28 14:13 53.69070 28.33728 2972 ft 137 kts 325°
2026-04-28 14:13 53.69859 28.32821 2970 ft 138 kts 325°
2026-04-28 14:14 53.70655 28.31900 2986 ft 138 kts 325°
2026-04-28 14:14 53.71470 28.31012 2974 ft 140 kts 326°
2026-04-28 14:14 53.72256 28.30090 2972 ft 139 kts 323°
2026-04-28 14:14 53.73017 28.29095 2977 ft 137 kts 321°
2026-04-28 14:15 53.73758 28.28062 2972 ft 138 kts 320°
2026-04-28 14:15 53.74489 28.27012 2973 ft 138 kts 320°
2026-04-28 14:15 53.75214 28.25953 2979 ft 138 kts 319°
2026-04-28 14:15 53.75940 28.24883 2971 ft 139 kts 320°
2026-04-28 14:16 53.76668 28.23808 2973 ft 138 kts 320°
2026-04-28 14:16 53.77379 28.22757 2968 ft 132 kts 320°
2026-04-28 14:16 53.78048 28.21768 2983 ft 123 kts 320°
2026-04-28 14:16 53.78668 28.20850 2961 ft 115 kts 320°
2026-04-28 14:17 53.79259 28.19976 2893 ft 114 kts 321°
2026-04-28 14:17 53.79856 28.19098 2758 ft 116 kts 319°
2026-04-28 14:17 53.80461 28.18197 2603 ft 116 kts 320°
2026-04-28 14:17 53.81066 28.17292 2455 ft 116 kts 318°
2026-04-28 14:18 53.81671 28.16377 2308 ft 116 kts 321°
2026-04-28 14:18 53.82289 28.15498 2142 ft 116 kts 321°
2026-04-28 14:18 53.82913 28.14603 1978 ft 118 kts 320°
2026-04-28 14:18 53.83535 28.13669 1839 ft 121 kts 322°
2026-04-28 14:19 53.84163 28.12733 1674 ft 120 kts 321°
2026-04-28 14:19 53.84787 28.11802 1503 ft 120 kts 321°
2026-04-28 14:19 53.85410 28.10879 1349 ft 119 kts 321°
2026-04-28 14:19 53.86042 28.09945 1195 ft 121 kts 321°
2026-04-28 14:20 53.86653 28.09000 984 ft 119 kts 309°
2026-04-28 14:20 53.87252 28.08377 1057 ft 123 kts 18°
2026-04-28 14:20 53.87860 28.09716 1250 ft 144 kts 56°
2026-04-28 14:20 53.88440 28.10742 2016 ft 108 kts
2026-04-28 14:21 53.89148 28.10532 2624 ft 117 kts 329°
2026-04-28 14:21 53.89768 28.09618 2916 ft 119 kts 307°
2026-04-28 14:21 53.90197 28.08360 2875 ft 125 kts 303°
2026-04-28 14:21 53.90635 28.07087 2503 ft 134 kts 304°
2026-04-28 14:22 53.91124 28.05737 2186 ft 133 kts 305°
2026-04-28 14:22 53.91612 28.04481 1985 ft 121 kts 310°
2026-04-28 14:22 53.92148 28.03260 1851 ft 141 kts 311°
2026-04-28 14:22 53.92807 28.01986 2683 ft 148 kts 317°
2026-04-28 14:23 53.93586 28.00693 3364 ft 161 kts 320°
2026-04-28 14:23 53.94438 27.99453 3808 ft 167 kts 319°
2026-04-28 14:23 53.95334 27.98096 3731 ft 170 kts 319°
2026-04-28 14:23 53.96201 27.96793 3526 ft 162 kts 319°
2026-04-28 14:24 53.97046 27.95517 3125 ft 162 kts 319°
2026-04-28 14:24 53.97959 27.94375 3024 ft 169 kts 336°
2026-04-28 14:24 53.99132 27.94207 2975 ft 175 kts 12°
2026-04-28 14:24 54.00208 27.95173 2950 ft 179 kts 35°
2026-04-28 14:25 54.00894 27.96970 2979 ft 188 kts 67°
2026-04-28 14:25 54.00905 27.99255 2973 ft 200 kts 103°
2026-04-28 14:25 54.00163 28.01255 2973 ft 206 kts 137°
2026-04-28 14:25 53.98898 28.02234 2973 ft 196 kts 174°
2026-04-28 14:26 53.97589 28.02254 2965 ft 182 kts 193°
2026-04-28 14:26 53.96377 28.01664 2975 ft 180 kts 211°
2026-04-28 14:26 53.95350 28.00558 2972 ft 173 kts 217°
2026-04-28 14:26 53.94146 28.00338 2972 ft 184 kts 160°
2026-04-28 14:27 53.93026 28.01409 2951 ft 188 kts 161°
2026-04-28 14:27 53.91816 28.01321 2988 ft 172 kts 218°
2026-04-28 14:27 53.91154 27.99789 3000 ft 162 kts 250°
2026-04-28 14:27 53.90474 27.98195 2985 ft 167 kts 245°
2026-04-28 14:28 53.90278 27.96410 2993 ft 149 kts 290°
2026-04-28 14:28 53.90866 27.95050 2990 ft 142 kts 319°
2026-04-28 14:28 53.91594 27.93910 2970 ft 142 kts 317°
2026-04-28 14:28 53.92321 27.92796 2972 ft 143 kts 319°
2026-04-28 14:29 53.93202 27.92189 2952 ft 142 kts
2026-04-28 14:29 53.94010 27.93280 2971 ft 168 kts 60°
2026-04-28 14:29 53.94435 27.95133 2948 ft 167 kts 47°
2026-04-28 14:29 53.95330 27.96113 2975 ft 152 kts 14°
2026-04-28 14:30 53.96311 27.96847 2967 ft 159 kts 26°
2026-04-28 14:30 53.97054 27.98290 2954 ft 171 kts 62°
2026-04-28 14:30 53.97177 28.00313 2979 ft 175 kts 85°
2026-04-28 14:30 53.97124 28.02381 2968 ft 175 kts 86°
2026-04-28 14:31 53.97067 28.04459 2969 ft 177 kts 86°
2026-04-28 14:31 53.97007 28.06564 2980 ft 179 kts 86°
2026-04-28 14:31 53.96945 28.08701 2976 ft 182 kts 87°
2026-04-28 14:31 53.96883 28.10842 2980 ft 181 kts 87°
2026-04-28 14:32 53.96818 28.12951 2974 ft 182 kts 87°
2026-04-28 14:32 53.96752 28.15090 2968 ft 181 kts 86°
2026-04-28 14:32 53.96688 28.17214 2964 ft 179 kts 89°
2026-04-28 14:32 53.96317 28.19237 2977 ft 180 kts 112°
2026-04-28 14:33 53.95735 28.21114 2956 ft 180 kts 121°
2026-04-28 14:33 53.94894 28.22705 2974 ft 182 kts 136°
2026-04-28 14:33 53.93941 28.24164 2995 ft 186 kts 137°
2026-04-28 14:33 53.92964 28.25638 2983 ft 185 kts 138°
2026-04-28 14:34 53.91040 28.28541 2988 ft 188 kts 138°
2026-04-28 14:34 53.90042 28.30033 2987 ft 195 kts 138°
2026-04-28 14:34 53.89020 28.31532 2950 ft 191 kts 138°
2026-04-28 14:35 53.88048 28.32998 2947 ft 182 kts 138°
2026-04-28 14:35 53.87101 28.34441 2969 ft 184 kts 137°
2026-04-28 14:35 53.86115 28.35898 2993 ft 190 kts 138°
2026-04-28 14:35 53.85102 28.37331 2959 ft 188 kts 138°
2026-04-28 14:36 53.84153 28.38777 2955 ft 179 kts 134°
2026-04-28 14:36 53.83232 28.40218 2970 ft 182 kts 137°
2026-04-28 14:36 53.82130 28.41258 2980 ft 184 kts 168°
2026-04-28 14:36 53.80866 28.41531 3075 ft 181 kts 186°
2026-04-28 14:37 53.79687 28.41045 2985 ft 170 kts 211°
2026-04-28 14:37 53.78669 28.40162 2969 ft 166 kts 217°
2026-04-28 14:37 53.77798 28.38929 2979 ft 161 kts 233°
2026-04-28 14:37 53.77062 28.37493 2980 ft 161 kts 238°
2026-04-28 14:38 53.76342 28.36044 2983 ft 160 kts 237°
2026-04-28 14:38 53.75630 28.34605 2969 ft 159 kts 237°
2026-04-28 14:38 53.74947 28.33144 2969 ft 157 kts 247°
2026-04-28 14:38 53.74627 28.31442 2981 ft 150 kts 265°
2026-04-28 14:39 53.74566 28.29704 2957 ft 147 kts 279°
2026-04-28 14:39 53.74758 28.28034 2964 ft 145 kts 290°
2026-04-28 14:39 53.75139 28.26477 2972 ft 142 kts 303°
2026-04-28 14:39 53.75776 28.25208 2981 ft 143 kts 317°
2026-04-28 14:40 53.76512 28.24066 2989 ft 144 kts 318°
2026-04-28 14:40 53.76755 28.23699 2989 ft 145 kts 318°
2026-04-28 14:40 53.78022 28.21808 2977 ft 144 kts 318°
2026-04-28 14:40 53.78759 28.20714 2958 ft 138 kts 318°
2026-04-28 14:41 53.79459 28.19680 2850 ft 131 kts 319°
2026-04-28 14:41 53.80103 28.18732 2812 ft 119 kts 319°
2026-04-28 14:41 53.80742 28.17789 2648 ft 121 kts 318°
2026-04-28 14:41 53.81351 28.16881 2453 ft 113 kts 319°
2026-04-28 14:42 53.81958 28.16053 2211 ft 110 kts 320°
2026-04-28 14:42 53.82564 28.15273 2056 ft 111 kts 323°
2026-04-28 14:42 53.83174 28.14495 2050 ft 112 kts 320°
2026-04-28 14:42 53.83761 28.13606 1972 ft 115 kts 315°
2026-04-28 14:43 53.84345 28.12692 1802 ft 115 kts 319°
2026-04-28 14:43 53.84939 28.11809 1593 ft 115 kts 318°
2026-04-28 14:43 53.85525 28.10829 1400 ft 120 kts 318°
2026-04-28 14:43 53.86153 28.09877 1217 ft 121 kts 319°
2026-04-28 14:44 53.86774 28.08920 1010 ft 118 kts 319°
2026-04-28 14:44 53.87378 28.07988 884 ft 117 kts 320°
2026-04-28 14:44 53.87997 28.07076 769 ft 119 kts 319°
2026-04-28 14:44 53.88619 28.06128 650 ft 118 kts 317°
2026-04-28 14:45 53.89177 28.05319 637 ft 90 kts 319°
2026-04-28 14:45 53.89558 28.04758 632 ft 55 kts 319°
2026-04-28 14:45 53.89713 28.04481 638 ft 25 kts 292°
2026-04-28 14:45 53.89756 28.04307 637 ft 24 kts 294°
2026-04-28 14:46 53.89693 28.04155 635 ft 15 kts 139°
2026-04-28 14:46 53.89604 28.04286 637 ft 18 kts 138°
2026-04-28 14:46 53.89500 28.04443 634 ft 22 kts 138°
2026-04-28 14:46 53.89378 28.04619 634 ft 24 kts 140°
2026-04-28 14:47 53.89300 28.04593 641 ft 13 kts 225°
2026-04-28 14:47 53.89233 28.04463 634 ft 16 kts 229°
2026-04-28 14:47 53.89137 28.04387 637 ft 18 kts 148°
2026-04-28 14:47 53.89070 28.04395 634 ft 12 kts 233°
2026-04-28 14:48 53.89011 28.04268 639 ft 15 kts 229°
2026-04-28 14:48 53.88934 28.04129 636 ft 18 kts 230°
2026-04-28 14:48 53.88854 28.03970 634 ft 17 kts 229°
2026-04-28 14:48 53.88807 28.03858 634 ft 4 kts 282°
2026-04-28 14:49 53.88834 28.03808 637 ft 7 kts 317°
2026-04-28 14:49 53.88880 28.03739 634 ft 10 kts 318°
2026-04-28 14:49 53.88883 28.03672 643 ft 6 kts 232°
2026-04-28 14:49 53.88890 28.03613 639 ft 7 kts 314°
2026-04-28 14:50 53.88906 28.03588 634 ft 2 kts 316°
2026-04-28 14:50 53.88917 28.03569 634 ft 0 kts 312°